Location: Leeds
(37.2390°N, 113.3580°W)
Time: 01:00:25
(UTC-07:00)

Daily predictions for brighter satellites

Satellite Brightness Start Highest point End
(mag) Time Altitude Azimuth Time Altitude Azimuth Time Altitude Azimuth
CZ-3 Stage 3 4.4 04:28:58 16° ESE 04:28:58 16° ESE 04:30:57 10° ESE
SL-16 R/B 3.6 04:39:13 35° E 04:39:13 35° E 04:43:39 10° SE
Cosmos 2297 Rocket 4.5 04:47:14 15° NNE 04:47:14 15° NNE 04:48:04 10° NNE
USA 229 DEB 3.8 05:00:50 74° NNE 05:01:22 79° ENE 05:08:38 10° SE
USA 229 3.8 05:00:52 73° N 05:01:28 78° ENE 05:08:43 10° SE
Tsikada Rocket 4.0 05:04:13 78° ENE 05:04:17 78° E 05:10:34 10° S
Tiangong 2 4.0 05:25:45 17° ESE 05:25:45 17° ESE 05:27:00 10° E
ERBS 4.2 05:33:13 29° ENE 05:33:13 29° ENE 05:35:35 10° ESE
Cosmos 2151 3.7 05:36:01 24° NNE 05:38:16 51° E 05:42:24 10° SSE
DELTA 2 R/B (1) 3.7 05:45:40 44° SW 05:47:23 69° SSE 05:52:55 10° ENE
COSMO-SKYMED 1 2.6 05:46:36 10° SSE 05:50:56 81° ENE 05:53:20 26° N
NOSS 3-1 (C) 4.2 05:49:02 18° NNW 05:55:05 77° ENE 06:03:29 10° SE
Cosmos 1538 Rocket 3.9 05:53:48 24° NNW 05:57:09 84° WSW 06:02:29 10° SSE
CZ-4 R/B 4.0 05:56:54 10° NE 06:00:10 23° E 06:03:27 10° SSE
Cosmos 304 Rocket 3.9 06:00:38 46° W 06:00:48 46° WSW 06:05:21 10° S
Genesis I 3.7 05:59:40 32° N 06:01:13 55° ENE 06:05:03 10° SE
CSL-04 Rocket 4.2 05:57:16 10° NNE 06:02:29 58° ESE 06:07:39 10° S
GPS 2-05 Rocket1 2.8 06:03:06 65° S 06:03:06 65° S 06:06:19 10° E
Ariane Rocket 3.2 05:59:46 10° NNE 06:04:53 75° ESE 06:09:58 10° S
Cosmos 1500 Rocket 3.8 06:05:52 44° W 06:05:59 44° W 06:10:13 10° SSW
Cosmos 1328 3.9 06:06:42 48° WSW 06:06:42 48° WSW 06:10:23 10° SSW
Cosmos 2233 Rocket 4.3 06:02:58 10° SSW 06:08:48 42° WNW 06:14:45 10° N
Cosmos 2227 4.1 06:05:17 10° SSW 06:10:50 64° WNW 06:16:26 10° NNE
ISS -2.7 06:14:39 38° SW 06:14:39 38° SW 06:17:37 10° SSE
Coronas F rocket 4.2 06:16:35 10° NE 06:18:09 16° ENE 06:19:43 10° ESE
SeaSat 1 4.4 06:15:44 10° NNW 06:16:40 13° NNW 06:16:40 13° NNW
Sich 1 4.4 06:15:09 10° N 06:19:15 40° E 06:23:18 10° SSE
OAO 2 Rocket 3.7 06:17:32 27° WSW 06:19:49 48° SSW 06:24:33 10° ESE
SL-16 R/B 3.0 06:21:11 26° W 06:22:22 28° WSW 06:27:07 10° SSW
ATLAS 2A CENTAUR R/B 4.2 06:21:30 13° SW 06:23:25 16° SSW 06:25:11 10° SSE
Cosmos 1633 Rocket 4.4 06:20:25 10° N 06:24:31 40° E 06:28:36 10° SSE
Cosmos 2297 Rocket 4.2 06:29:05 10° NNW 06:29:05 10° NNW 06:29:23 10° NNW
Cosmos 389 Rocket 3.8 06:24:00 10° SSE 06:27:30 45° E 06:31:02 10° NNE
PAYLOAD A 4.0 06:24:08 10° NNE 06:29:08 77° ESE 06:33:54 10° S
Cosmos 1703 3.2 06:26:04 10° N 06:30:00 89° W 06:33:57 10° S
Cosmos 2034 Rocket 3.9 06:26:38 10° S 06:32:48 84° W 06:39:05 10° N
Meteor 1-28 Rocket 3.4 06:29:17 10° S 06:32:54 46° W 06:36:22 11° NNW
PSLV R/B 3.8 06:34:15 27° WNW 06:35:42 45° N 06:38:57 10° ENE
Cosmos 1271 Rocket 3.6 06:33:21 10° SW 06:36:34 25° WNW 06:39:46 10° NNW
Cosmos 1626 2.1 06:34:14 10° N 06:38:00 87° E 06:41:43 10° S
Nadezhda 4 Rocket 4.4 06:31:57 10° N 06:38:15 67° E 06:44:29 10° SSE
SKYMED 2 4.5 06:35:26 10° SSW 06:39:07 27° W 06:41:58 14° NW
Cosmos 2058 3.5 06:37:10 10° NNW 06:40:56 35° W 06:44:43 10° SSW
Gbstr 26 Del rocket 3.9 06:37:28 10° SW 06:42:42 76° SE 06:49:19 10° NE
Cosmos 773 Rocket 4.3 06:38:03 10° NNW 06:43:07 47° WSW 06:48:10 10° S
YAOGAN 1 3.4 06:41:54 10° NNE 06:46:10 54° E 06:50:23 10° S
Cosmos 1184 Rocket 2.7 06:43:22 10° N 06:46:41 81° W 06:49:59 10° S
Cosmos 2112 Rocket 4.2 06:42:39 10° NNW 06:48:01 81° ENE 06:53:22 10° SSE
Cosmos 1340 Rocket 3.7 06:46:21 11° NW 06:49:33 27° W 06:52:54 10° SSW
OPS 8737 4.3 06:46:27 10° SSW 06:49:57 87° ESE 06:53:07 10° NNE
Cosmos 2221 3.3 06:47:21 10° SW 06:51:08 29° WNW 06:54:56 10° NNW
Cosmos 292 Rocket 3.9 06:52:09 10° NNW 06:56:51 57° WSW 07:01:32 10° S
Cosmos 1092 Rocket 4.4 06:50:51 10° N 06:57:06 67° E 07:03:15 10° SSE
Cosmos 1666 Rocket 3.6 06:53:09 10° NNW 06:57:35 65° W 07:02:00 10° S
Cosmos 1484 Rocket 4.3 06:54:57 10° NNE 06:58:46 41° E 07:02:30 10° S
Tiangong 2 1.1 06:57:48 10° WSW 07:00:52 64° NNW 07:03:59 10° ENE
Cosmos 1943 3.2 06:57:58 10° NNW 07:03:42 84° WSW 07:09:22 10° SSE
Cosmos 1356 Rocket 3.9 06:59:56 10° NNW 07:03:45 38° W 07:07:37 10° SSW
Helios 1B rocket 3.0 07:00:21 10° SSE 07:04:23 63° ENE 07:08:27 10° N
SMAP 3.0 07:00:48 10° N 07:05:28 78° WNW 07:10:07 10° SSW
NOSS 3-1 (A) 4.3 06:58:29 10° NW 07:06:03 54° WSW 07:14:12 10° S
APEX 3.0 07:02:16 10° SSW 07:06:21 76° WNW 07:09:37 10° NNE
ERBS 4.1 07:06:38 10° W 07:08:56 17° WSW 07:11:15 10° SSW
Cosmos 1933 Rocket 4.3 07:04:47 10° N 07:09:11 58° E 07:13:32 10° SSE
SJ-7 4.4 07:07:29 10° N 07:11:29 64° WNW 07:15:30 10° SSW
CORIOLIS 4.2 07:06:36 10° NNE 07:12:03 88° WNW 07:17:29 10° SSW
Cosmos 2344 3.6 07:06:00 10° SW 07:13:39 73° NW 07:22:09 10° NNE
ATLAS 2AS CENTAUR R/B 3.6 07:07:01 10° NNW 07:14:59 60° NE 07:22:20 10° SE
MONITOR-E 4.2 07:16:30 10° N 07:19:39 86° WNW 07:22:49 10° SSW
SPOT 3 Rocket 3.6 07:16:28 10° N 07:21:40 71° WNW 07:26:51 10° SSW
